Total_Precipitation_Accumulation
0.45 0.46 0.59 0.63 0.56 0.56 0.67 0.80 0.98 0.90 0.82 0.67 0.64 0.70 0.75 0.72 0.66 0.62 0.55 0.49 0.54 0.58 0.67 0.71 0.77 0.82 0.82 0.79 0.86 0.93 1.08 1.20 1.27 1.37 1.44 1.37 1.25 1.19 1.26 1.25 1.24 1.38 1.51 1.62
0.35 0.32 0.43 0.50 0.48 0.50 0.54 0.60 0.72 0.78 0.75 0.59 0.54 0.55 0.60 0.56 0.51 0.49 0.49 0.44 0.46 0.51 0.59 0.60 0.62 0.65 0.66 0.74 0.92 0.96 1.00 1.08 1.28 1.39 1.34 1.29 1.20 1.16 1.16 1.15 1.17 1.26 1.38 1.55
0.55 0.39 0.47 0.70 0.66 0.67 0.69 0.64 0.68 0.64 0.52 0.36 0.36 0.40 0.49 0.46 0.44 0.46 0.45 0.43 0.43 0.42 0.44 0.45 0.50 0.59 0.67 0.75 0.88 0.92 0.96 1.09 1.29 1.33 1.24 1.17 1.21 1.23 1.15 1.13 1.18 1.25 1.30 1.30
0.69 0.65 0.99 1.04 0.75 0.71 0.69 0.51 0.40 0.33 0.28 0.26 0.35 0.35 0.36 0.37 0.37 0.39 0.39 0.36 0.34 0.32 0.33 0.37 0.42 0.51 0.61 0.68 0.75 0.81 0.87 1.00 1.18 1.22 1.20 1.23 1.21 1.20 1.12 1.06 1.06 1.11 1.15 1.18
0.84 0.85 0.96 0.83 0.58 0.52 0.55 0.45 0.25 0.23 0.23 0.23 0.28 0.30 0.29 0.30 0.28 0.28 0.28 0.25 0.25 0.25 0.28 0.31 0.32 0.38 0.46 0.53 0.59 0.62 0.73 0.87 0.98 1.00 1.10 1.15 1.07 1.08 1.03 0.96 0.96 0.99 1.04 1.11
1.02 1.13 1.04 0.62 0.38 0.36 0.48 0.63 0.28 0.21 0.21 0.19 0.21 0.30 0.28 0.22 0.21 0.21 0.20 0.19 0.21 0.22 0.24 0.28 0.28 0.31 0.38 0.48 0.53 0.55 0.65 0.78 0.88 0.91 0.94 0.98 1.04 1.03 1.03 0.99 0.96 0.97 1.01 1.02
0.96 1.19 0.95 0.47 0.33 0.37 0.68 0.78 0.40 0.28 0.25 0.22 0.21 0.22 0.19 0.17 0.16 0.17 0.16 0.16 0.19 0.20 0.26 0.29 0.30 0.31 0.34 0.42 0.46 0.51 0.56 0.67 0.74 0.78 0.87 0.98 1.08 1.11 1.14 1.11 1.04 1.02 1.07 1.08
0.86 1.11 1.00 0.47 0.43 0.58 0.65 0.49 0.41 0.34 0.29 0.23 0.18 0.13 0.11 0.12 0.12 0.13 0.13 0.14 0.17 0.21 0.30 0.33 0.34 0.34 0.34 0.38 0.43 0.48 0.49 0.57 0.70 0.80 0.89 0.99 1.10 1.14 1.15 1.17 1.17 1.17 1.15 1.16
0.92 1.02 0.69 0.47 0.53 0.56 0.48 0.43 0.33 0.27 0.23 0.20 0.17 0.14 0.11 0.10 0.11 0.13 0.14 0.17 0.19 0.25 0.32 0.31 0.33 0.35 0.37 0.42 0.46 0.47 0.50 0.52 0.58 0.64 0.70 0.81 0.92 1.05 1.11 1.12 1.14 1.15 1.20 1.25
0.72 0.61 0.40 0.38 0.40 0.38 0.35 0.32 0.27 0.24 0.20 0.18 0.15 0.14 0.14 0.13 0.13 0.13 0.14 0.16 0.20 0.26 0.30 0.28 0.29 0.32 0.35 0.39 0.42 0.47 0.52 0.53 0.52 0.52 0.55 0.65 0.80 0.87 0.91 0.97 1.03 1.12 1.21 1.32
0.70 0.61 0.44 0.35 0.34 0.32 0.30 0.24 0.22 0.25 0.24 0.21 0.18 0.14 0.13 0.12 0.12 0.12 0.14 0.14 0.19 0.25 0.29 0.29 0.27 0.29 0.31 0.32 0.35 0.40 0.46 0.51 0.55 0.55 0.58 0.63 0.71 0.84 0.92 0.97 1.04 1.10 1.16 1.31
0.75 0.63 0.57 0.40 0.32 0.27 0.26 0.22 0.19 0.20 0.23 0.24 0.25 0.23 0.16 0.14 0.12 0.14 0.15 0.17 0.21 0.26 0.30 0.30 0.28 0.27 0.31 0.32 0.35 0.43 0.49 0.50 0.53 0.55 0.61 0.67 0.74 0.84 0.92 0.95 0.96 0.99 1.05 1.10
0.49 0.45 0.40 0.32 0.26 0.22 0.21 0.18 0.16 0.15 0.16 0.18 0.21 0.26 0.26 0.22 0.18 0.15 0.16 0.20 0.23 0.27 0.30 0.27 0.26 0.25 0.27 0.30 0.38 0.51 0.57 0.57 0.58 0.57 0.62 0.71 0.76 0.80 0.87 0.91 0.92 0.93 0.96 1.02
0.35 0.35 0.36 0.30 0.24 0.21 0.19 0.17 0.14 0.15 0.17 0.18 0.19 0.21 0.24 0.27 0.24 0.20 0.20 0.22 0.24 0.26 0.28 0.25 0.27 0.27 0.28 0.30 0.35 0.41 0.47 0.53 0.58 0.62 0.61 0.68 0.79 0.90 0.95 1.03 0.98 0.90 0.91 0.98
0.33 0.33 0.35 0.30 0.23 0.20 0.22 0.23 0.22 0.21 0.20 0.18 0.18 0.21 0.23 0.23 0.24 0.22 0.22 0.23 0.23 0.25 0.26 0.25 0.25 0.25 0.28 0.31 0.31 0.35 0.43 0.51 0.62 0.66 0.65 0.68 0.84 1.00 1.04 1.05 1.02 0.93 0.85 0.88
0.32 0.28 0.28 0.29 0.26 0.20 0.21 0.24 0.25 0.25 0.22 0.20 0.20 0.21 0.23 0.25 0.28 0.28 0.28 0.29 0.28 0.27 0.26 0.25 0.25 0.25 0.27 0.32 0.35 0.38 0.45 0.57 0.68 0.73 0.68 0.71 0.79 0.87 0.88 0.92 0.92 0.88 0.86 0.88
0.35 0.37 0.36 0.35 0.31 0.26 0.23 0.23 0.25 0.26 0.25 0.24 0.24 0.28 0.31 0.34 0.35 0.33 0.34 0.37 0.38 0.35 0.34 0.35 0.32 0.30 0.33 0.36 0.39 0.46 0.54 0.57 0.63 0.69 0.68 0.67 0.72 0.75 0.78 0.82 0.80 0.78 0.79 0.85
0.34 0.36 0.40 0.44 0.44 0.37 0.30 0.28 0.29 0.33 0.32 0.29 0.28 0.34 0.39 0.39 0.39 0.38 0.39 0.40 0.39 0.38 0.38 0.42 0.43 0.40 0.40 0.43 0.47 0.50 0.55 0.58 0.59 0.67 0.71 0.68 0.70 0.74 0.79 0.79 0.78 0.76 0.74 0.75
0.31 0.32 0.34 0.40 0.44 0.45 0.41 0.38 0.37 0.38 0.36 0.35 0.36 0.42 0.45 0.42 0.39 0.38 0.40 0.44 0.47 0.48 0.46 0.45 0.49 0.44 0.42 0.48 0.55 0.55 0.57 0.58 0.61 0.66 0.69 0.70 0.72 0.76 0.81 0.83 0.82 0.80 0.78 0.78
0.35 0.36 0.38 0.41 0.41 0.45 0.46 0.47 0.47 0.47 0.43 0.42 0.44 0.46 0.48 0.44 0.42 0.41 0.43 0.46 0.48 0.49 0.48 0.50 0.46 0.42 0.43 0.47 0.53 0.53 0.57 0.60 0.65 0.71 0.72 0.76 0.83 0.87 0.86 0.85 0.88 0.86 0.81 0.80
0.35 0.38 0.42 0.43 0.41 0.41 0.46 0.48 0.49 0.51 0.50 0.46 0.46 0.48 0.47 0.44 0.44 0.47 0.51 0.53 0.50 0.48 0.51 0.54 0.49 0.47 0.47 0.52 0.54 0.51 0.56 0.58 0.62 0.70 0.74 0.78 0.85 0.89 0.86 0.85 0.88 0.91 0.93 0.89
0.31 0.35 0.38 0.39 0.42 0.44 0.47 0.49 0.46 0.43 0.44 0.46 0.45 0.45 0.46 0.47 0.47 0.47 0.48 0.53 0.54 0.57 0.58 0.57 0.56 0.62 0.66 0.63 0.53 0.52 0.55 0.58 0.65 0.74 0.79 0.81 0.86 0.91 0.88 0.85 0.89 0.92 0.94 0.97
0.30 0.33 0.38 0.40 0.43 0.47 0.48 0.51 0.50 0.45 0.42 0.46 0.51 0.54 0.56 0.58 0.55 0.55 0.58 0.56 0.59 0.63 0.55 0.56 0.69 0.80 0.82 0.67 0.60 0.58 0.57 0.61 0.69 0.79 0.85 0.88 0.92 0.96 0.97 0.95 0.96 0.97 1.00 1.07
0.31 0.32 0.37 0.41 0.41 0.44 0.51 0.55 0.53 0.49 0.45 0.47 0.54 0.59 0.61 0.61 0.58 0.57 0.62 0.67 0.72 0.69 0.56 0.58 0.69 0.78 0.79 0.68 0.68 0.68 0.67 0.70 0.76 0.81 0.85 0.90 0.97 1.03 1.04 1.07 1.08 1.05 1.04 1.09
0.31 0.34 0.37 0.42 0.44 0.46 0.49 0.49 0.48 0.49 0.50 0.51 0.53 0.54 0.57 0.59 0.61 0.60 0.59 0.60 0.68 0.71 0.65 0.68 0.76 0.78 0.70 0.69 0.74 0.77 0.78 0.80 0.86 0.92 0.95 1.00 1.05 1.09 1.11 1.11 1.14 1.16 1.17 1.18
0.35 0.37 0.39 0.43 0.46 0.47 0.48 0.48 0.50 0.49 0.49 0.51 0.52 0.52 0.53 0.53 0.53 0.55 0.55 0.56 0.60 0.67 0.67 0.68 0.70 0.73 0.69 0.68 0.71 0.73 0.74 0.78 0.86 0.91 0.94 1.00 1.06 1.11 1.12 1.12 1.11 1.15 1.21 1.26
0.36 0.36 0.37 0.38 0.39 0.41 0.44 0.46 0.50 0.55 0.55 0.53 0.54 0.53 0.52 0.55 0.54 0.54 0.54 0.56 0.59 0.63 0.67 0.72 0.75 0.75 0.74 0.77 0.78 0.73 0.73 0.75 0.76 0.81 0.88 0.94 1.02 1.10 1.14 1.16 1.19 1.23 1.29 1.35